period_start,C,m1,H,J0,J1,J2,J3,J4,J5,JA,JB,JC,JD,JJ,JK,JN,#
2016-09-15 00:00:02,0.14,1.98,0.00,25.13,29.40,32.07,14.56,47.98,1028.36,2026.96,2687.34,2634.62,2946.28,599.96,598.59,26.37,0000 0000 0000 0000 000000
2016-09-15 00:05:03,0.14,1.99,0.00,25.17,29.41,32.04,14.62,48.10,1028.36,2026.93,2685.00,2633.00,2944.39,600.36,598.89,26.42,0000 0000 0000 0000 000000
2016-09-15 00:10:05,0.12,1.99,0.00,25.20,29.42,32.05,14.51,47.82,1028.37,2026.85,2682.58,2631.38,2942.50,599.89,598.38,26.47,0000 0000 0000 0000 000000
2016-09-15 00:15:06,0.11,2.00,0.00,25.24,29.45,32.07,14.53,47.77,1028.37,2026.53,2680.19,2629.72,2940.55,600.24,598.61,26.52,0000 0000 0000 0000 000000
2016-09-15 00:20:07,0.11,2.00,0.00,25.29,29.45,32.11,14.54,47.93,1028.52,2026.39,2677.98,2628.20,2938.67,599.62,597.99,26.57,0000 0000 0000 0000 000000
2016-09-15 00:25:08,0.13,2.01,0.00,25.30,29.47,32.09,14.66,48.08,1028.60,2026.13,2675.58,2626.62,2936.79,600.46,598.87,26.62,0000 0000 0000 0000 000000
2016-09-15 00:30:10,0.13,2.02,0.00,25.33,29.49,32.17,14.59,48.01,1028.45,2026.04,2673.23,2624.94,2934.90,600.30,598.57,26.67,0000 0000 0000 0000 000000
2016-09-15 00:35:11,0.13,2.02,0.00,25.34,29.50,32.16,14.54,47.90,1028.38,2026.01,2670.97,2623.48,2933.09,599.98,598.18,26.72,0000 0000 0000 0000 000000
2016-09-15 00:40:12,0.11,2.03,0.00,25.40,29.52,32.13,14.48,48.01,1028.35,2026.01,2668.72,2622.18,2931.31,599.93,598.06,26.77,0000 0000 0000 0000 000000
2016-09-15 00:45:13,0.14,2.04,0.00,25.48,29.54,32.15,14.61,48.08,1028.34,2026.00,2666.41,2620.65,2929.47,599.71,597.62,26.82,0000 0000 0000 0000 000000
2016-09-15 00:50:14,0.13,2.04,0.00,25.51,29.55,32.16,14.54,48.07,1028.37,2026.00,2664.21,2619.15,2927.63,599.85,597.79,26.87,0000 0000 0000 0000 000000
2016-09-15 00:55:16,0.15,2.05,0.00,25.55,29.57,32.20,14.59,48.09,1028.53,2026.00,2661.87,2617.57,2925.76,600.44,598.26,26.92,0000 0000 0000 0000 000000
2016-09-15 01:00:17,0.15,2.06,0.00,25.58,29.60,32.21,14.53,48.10,1028.69,2025.99,2659.35,2615.84,2923.72,599.73,597.45,26.97,0000 0000 0000 0000 000000
2016-09-15 01:05:18,0.14,2.07,0.00,25.60,29.61,32.33,14.56,48.11,1028.74,2025.98,2656.86,2614.15,2921.68,600.35,598.24,27.02,0000 0000 0000 0000 000000
2016-09-15 01:10:19,0.14,2.07,0.00,25.68,29.63,32.38,14.52,47.99,1028.75,2025.90,2654.36,2612.50,2919.71,600.20,597.94,27.07,0000 0000 0000 0000 000000
2016-09-15 01:15:21,0.10,2.08,0.00,25.68,29.66,32.35,14.51,48.12,1028.58,2025.54,2651.91,2610.82,2917.68,599.92,597.79,27.12,0000 0000 0000 0000 000000
2016-09-15 01:20:22,0.13,2.08,0.00,23.78,29.66,31.51,14.70,48.40,1028.71,2025.20,2649.12,2609.19,2915.72,599.59,601.05,27.17,0000 0000 0000 0000 000000
2016-09-15 01:25:24,0.16,2.09,0.00,22.46,29.62,31.18,14.85,48.55,1028.65,2025.26,2646.38,2607.68,2913.92,599.95,604.17,27.22,0000 0000 0000 0000 000000
2016-09-15 01:30:25,0.18,2.10,0.00,22.07,29.56,30.87,14.84,48.56,1028.35,2025.78,2643.96,2606.40,2912.27,600.06,604.97,27.27,0000 0000 0000 0000 000000
2016-09-15 01:35:26,0.13,2.11,0.00,21.50,29.49,30.34,14.79,48.84,1028.34,2025.98,2641.58,2605.13,2910.70,599.65,605.62,27.32,0000 0000 0000 0000 000000
2016-09-15 01:40:28,0.11,2.11,0.00,20.91,29.38,30.05,14.88,48.90,1028.31,2026.06,2639.34,2603.96,2909.33,599.87,607.10,27.37,0000 0000 0000 0000 000000
2016-09-15 01:45:29,0.19,2.12,0.00,20.82,29.25,29.76,14.86,48.82,1028.07,2026.86,2637.39,2603.01,2908.10,599.85,607.07,27.42,0000 0000 0000 0000 000000
2016-09-15 01:50:30,0.16,2.13,0.00,20.84,29.11,29.52,14.91,48.97,1027.87,2027.32,2635.46,2602.04,2906.93,599.82,606.89,27.47,0000 0000 0000 0000 000000
2016-09-15 01:55:31,0.14,2.14,0.00,20.69,28.95,29.30,14.83,49.04,1027.86,2027.98,2633.57,2601.08,2905.74,600.00,607.37,27.52,0000 0000 0000 0000 000000
2016-09-15 02:00:33,0.18,2.15,0.00,20.57,28.79,29.09,14.91,48.96,1027.88,2028.62,2631.68,2600.15,2904.66,599.59,607.21,27.57,0000 0000 0000 0000 000000
2016-09-15 02:05:34,0.13,2.15,0.00,20.39,28.61,28.87,14.92,48.90,1027.85,2029.18,2629.82,2599.21,2903.63,599.81,607.75,27.62,0000 0000 0000 0000 000000
2016-09-15 02:10:35,0.16,2.17,0.00,20.42,28.44,28.71,14.92,49.08,1027.84,2029.95,2628.06,2598.35,2902.58,600.09,608.10,27.67,0000 0000 0000 0000 000000
2016-09-15 02:15:37,0.18,2.17,0.00,20.53,28.27,28.58,14.80,48.77,1027.76,2030.69,2626.38,2597.55,2901.58,599.94,607.46,27.72,0000 0000 0000 0000 000000
2016-09-15 02:20:38,0.16,2.18,0.00,21.02,28.12,28.72,14.74,48.52,1027.71,2031.45,2624.79,2596.75,2900.58,599.83,606.42,27.77,0000 0000 0000 0000 000000
2016-09-15 02:25:40,0.10,2.19,0.00,21.34,27.99,28.81,14.80,48.74,1027.79,2032.00,2623.39,2595.87,2899.52,599.92,605.88,27.82,0000 0000 0000 0000 000000
2016-09-15 02:30:41,0.17,2.20,0.00,21.47,27.87,28.87,14.83,48.67,1027.81,2032.76,2621.92,2595.01,2898.58,600.21,605.96,27.87,0000 0000 0000 0000 000000
2016-09-15 02:35:42,0.11,2.20,0.00,21.76,27.76,29.44,14.68,48.60,1027.85,2033.06,2620.15,2594.05,2897.36,599.91,605.03,27.92,0000 0000 0000 0000 000000
2016-09-15 02:40:43,0.18,2.21,0.00,21.82,27.67,29.89,14.74,48.77,1027.85,2033.83,2618.32,2592.97,2896.15,600.09,605.12,27.97,0000 0000 0000 0000 000000
2016-09-15 02:45:45,0.12,2.22,0.00,21.84,27.59,30.13,14.79,48.73,1027.85,2034.00,2616.36,2591.85,2894.72,600.01,605.00,28.02,0000 0000 0000 0000 000000
2016-09-15 02:50:46,0.15,2.22,0.00,21.83,27.52,30.08,14.77,48.77,1027.83,2034.22,2614.36,2590.65,2893.31,599.93,605.05,28.07,0000 0000 0000 0000 000000
2016-09-15 02:55:47,0.18,2.23,0.00,21.78,27.45,30.14,14.81,48.74,1027.85,2034.90,2612.26,2589.42,2891.77,599.97,605.07,28.12,0000 0000 0000 0000 000000
2016-09-15 03:00:49,0.11,2.24,0.00,21.97,27.40,30.10,14.76,48.63,1027.85,2034.99,2610.17,2588.19,2890.25,599.92,604.65,28.17,0000 0000 0000 0000 000000
2016-09-15 03:05:50,0.13,2.25,0.00,22.10,27.36,30.13,14.81,48.74,1027.85,2035.02,2607.99,2586.86,2888.67,600.17,604.71,28.22,0000 0000 0000 0000 000000
2016-09-15 03:10:51,0.17,2.25,0.00,21.80,27.31,30.23,14.78,48.63,1027.84,2035.24,2605.67,2585.48,2886.94,599.87,604.93,28.27,0000 0000 0000 0000 000000
2016-09-15 03:15:52,0.18,2.26,0.00,21.30,27.27,30.17,14.89,48.92,1027.77,2035.87,2603.45,2584.23,2885.44,599.88,605.97,28.32,0000 0000 0000 0000 000000
2016-09-15 03:20:53,0.11,2.27,0.00,21.14,27.20,30.12,14.86,48.77,1027.84,2035.99,2601.38,2583.01,2883.92,600.07,606.50,28.37,0000 0000 0000 0000 000000
2016-09-15 03:25:54,0.11,2.28,0.00,21.17,27.13,30.09,14.86,48.64,1027.81,2036.04,2599.49,2581.95,2882.65,599.96,606.29,28.42,0000 0000 0000 0000 000000
2016-09-15 03:30:55,0.19,2.29,0.00,21.20,27.05,29.99,14.86,48.84,1027.62,2036.74,2597.58,2580.91,2881.41,600.02,606.14,28.47,0000 0000 0000 0000 000000
2016-09-15 03:35:56,0.11,2.29,0.00,21.30,26.98,30.00,14.80,48.88,1027.55,2036.99,2595.70,2579.86,2880.17,599.94,605.96,28.52,0000 0000 0000 0000 000000
2016-09-15 03:40:58,0.14,2.30,0.00,21.35,26.92,29.89,14.83,48.67,1027.41,2037.12,2593.67,2578.68,2878.83,599.54,605.33,28.57,0000 0000 0000 0000 000000
2016-09-15 03:45:59,0.18,2.31,0.00,21.15,26.85,29.88,14.83,48.78,1027.37,2037.74,2591.63,2577.49,2877.49,599.83,605.96,28.62,0000 0000 0000 0000 000000
2016-09-15 03:51:01,0.12,2.32,0.00,20.99,26.77,29.84,14.77,48.77,1027.38,2037.99,2589.51,2576.35,2876.09,599.84,606.31,28.67,0000 0000 0000 0000 000000
2016-09-15 03:56:02,0.11,2.32,0.00,20.84,26.69,29.72,14.93,48.93,1027.38,2038.02,2587.63,2575.15,2874.70,600.18,606.98,28.72,0000 0000 0000 0000 000000
2016-09-15 04:01:03,0.19,2.33,0.00,20.84,26.61,29.59,14.85,48.92,1027.40,2038.71,2585.67,2574.01,2873.47,599.75,606.53,28.77,0000 0000 0000 0000 000000
2016-09-15 04:06:05,0.11,2.34,0.00,20.78,26.53,29.49,14.94,49.15,1027.37,2038.99,2583.87,2572.97,2872.20,600.18,606.99,28.82,0000 0000 0000 0000 000000
2016-09-15 04:11:06,0.16,2.34,0.00,20.92,26.45,29.42,14.82,49.05,1027.42,2039.30,2582.01,2571.84,2870.88,600.01,606.54,28.87,0000 0000 0000 0000 000000
2016-09-15 04:16:07,0.15,2.35,0.00,21.00,26.38,29.34,14.90,49.11,1027.40,2039.93,2580.26,2570.78,2869.66,599.98,606.53,28.93,0000 0000 0000 0000 000000
2016-09-15 04:21:08,0.12,2.36,0.00,21.02,26.32,29.34,14.87,48.90,1027.38,2039.99,2578.32,2569.55,2868.25,599.95,606.36,28.98,0000 0000 0000 0000 000000
2016-09-15 04:26:10,0.12,2.36,0.00,21.04,26.26,29.31,14.80,48.99,1027.38,2040.06,2576.51,2568.36,2866.84,599.95,606.31,29.02,0000 0000 0000 0000 000000
2016-09-15 04:31:11,0.18,2.37,0.00,20.96,26.20,29.32,14.89,48.91,1027.39,2040.64,2574.71,2567.30,2865.56,599.84,606.40,29.07,0000 0000 0000 0000 000000
2016-09-15 04:36:12,0.12,2.38,0.00,20.90,26.15,29.29,14.84,48.92,1027.41,2040.98,2572.74,2566.06,2864.07,600.04,606.77,29.13,0000 0000 0000 0000 000000
2016-09-15 04:41:13,0.13,2.39,0.00,20.83,26.10,29.26,14.86,48.91,1027.40,2040.99,2570.75,2564.82,2862.64,600.28,607.07,29.18,0000 0000 0000 0000 000000
2016-09-15 04:46:15,0.12,2.39,0.00,20.80,26.06,29.20,14.88,48.95,1027.38,2041.01,2568.82,2563.64,2861.27,600.17,607.03,29.23,0000 0000 0000 0000 000000
2016-09-15 04:51:16,0.14,2.40,0.00,20.79,26.01,29.14,14.89,48.77,1027.37,2041.31,2567.04,2562.50,2859.91,600.34,607.19,29.28,0000 0000 0000 0000 000000
2016-09-15 04:56:17,0.16,2.41,0.00,20.82,25.98,29.08,14.85,48.86,1027.36,2041.89,2565.13,2561.33,2858.51,599.99,606.78,29.33,0000 0000 0000 0000 000000
2016-09-15 05:01:19,0.11,2.41,0.00,20.94,25.95,29.11,14.80,48.77,1027.37,2041.97,2563.10,2560.05,2856.95,599.87,606.44,29.38,0000 0000 0000 0000 000000
2016-09-15 05:09:21,0.12,2.42,0.00,20.96,25.91,29.06,14.87,48.80,1027.36,2041.99,2560.13,2558.41,2854.68,600.00,606.47,29.46,0000 0000 0000 0000 000000
2016-09-15 05:14:22,0.10,2.43,0.00,21.45,25.90,29.04,14.77,48.70,1027.34,2041.99,2558.45,2557.18,2853.28,599.70,605.31,29.51,0000 0000 0000 0000 000000
2016-09-15 05:19:23,0.54,2.44,0.00,22.53,25.91,28.87,14.70,48.33,1027.33,2041.99,2554.53,2552.62,2848.43,600.01,603.28,29.56,0000 0000 0000 0000 000000
2016-09-15 05:24:25,0.48,2.47,0.00,22.93,25.94,28.78,14.63,48.96,1027.33,2042.00,2547.94,2545.33,2840.23,600.21,602.77,29.61,0000 0000 0000 0000 000000
2016-09-15 05:29:26,0.16,2.49,0.00,23.31,25.99,28.80,14.64,48.38,1027.34,2041.99,2544.92,2542.51,2837.05,600.30,602.15,29.66,0000 0000 0000 0000 000000
2016-09-15 05:34:27,0.13,2.49,0.00,23.72,26.05,28.90,14.60,48.26,1027.36,2041.94,2542.95,2540.97,2835.25,600.19,600.99,29.71,0000 0000 0000 0000 000000
2016-09-15 05:39:29,0.06,2.50,0.00,23.99,26.12,28.95,14.52,48.23,1027.36,2041.32,2540.77,2539.47,2833.41,600.05,600.33,29.76,0000 0000 0000 0000 000000
2016-09-15 05:44:30,0.14,2.50,0.00,24.17,26.21,29.06,14.53,48.18,1027.36,2041.01,2538.50,2537.79,2831.49,600.16,600.13,29.81,0000 0000 0000 0000 000000
2016-09-15 05:49:32,0.13,2.51,0.00,24.34,26.30,29.18,14.49,48.36,1027.36,2040.98,2536.29,2536.25,2829.58,599.96,599.47,29.86,0000 0000 0000 0000 000000
2016-09-15 05:54:33,0.09,2.52,0.00,24.47,26.39,29.30,14.43,48.22,1027.36,2040.59,2534.04,2534.66,2827.65,599.94,599.30,29.91,0000 0000 0000 0000 000000
2016-09-15 05:59:35,0.12,2.52,0.00,24.63,26.49,29.42,14.44,48.23,1027.36,2040.02,2531.70,2533.01,2825.65,599.91,598.93,29.96,0000 0000 0000 0000 000000
2016-09-15 06:04:36,0.15,2.53,0.00,24.75,26.59,29.56,14.50,48.19,1027.36,2039.98,2529.40,2531.35,2823.63,599.86,598.60,30.01,0000 0000 0000 0000 000000
2016-09-15 06:09:37,0.08,2.54,0.00,24.85,26.69,29.66,14.50,48.24,1027.37,2039.37,2527.02,2529.53,2821.49,600.12,598.80,30.06,0000 0000 0000 0000 000000
2016-09-15 06:14:38,0.15,2.54,0.00,24.97,26.79,29.76,14.47,48.08,1027.39,2039.00,2524.57,2527.81,2819.39,599.91,598.31,30.11,0000 0000 0000 0000 000000
2016-09-15 06:19:40,0.09,2.55,0.00,25.05,26.90,29.88,14.46,48.14,1027.41,2038.46,2522.05,2525.90,2817.26,600.31,598.58,30.16,0000 0000 0000 0000 000000
2016-09-15 06:24:41,0.14,2.55,0.00,25.10,27.00,29.98,14.54,48.12,1027.50,2038.01,2519.58,2524.15,2815.23,600.23,598.41,30.21,0000 0000 0000 0000 000000
2016-09-15 06:29:42,0.15,2.56,0.00,25.14,27.10,30.08,14.45,47.98,1027.65,2037.82,2516.95,2522.38,2813.08,599.92,598.24,30.26,0000 0000 0000 0000 000000
2016-09-15 06:34:44,0.10,2.57,0.00,25.18,27.21,30.16,14.44,47.89,1027.80,2037.06,2514.36,2520.51,2810.79,600.02,598.21,30.31,0000 0000 0000 0000 000000
2016-09-15 06:39:45,0.17,2.58,0.00,25.20,27.30,30.25,14.53,48.00,1027.85,2036.96,2511.74,2518.55,2808.54,600.51,598.72,30.36,0000 0000 0000 0000 000000
2016-09-15 06:44:46,0.09,2.58,0.00,25.23,27.40,30.34,14.52,47.96,1027.85,2036.32,2509.09,2516.69,2806.29,600.11,598.20,30.41,0000 0000 0000 0000 000000
2016-09-15 06:49:47,0.17,2.59,0.00,25.24,27.49,30.42,14.54,48.20,1027.85,2036.00,2506.37,2514.80,2804.05,600.59,598.61,30.46,0000 0000 0000 0000 000000
2016-09-15 06:54:49,0.12,2.60,0.00,25.28,27.58,30.51,14.50,48.15,1027.85,2035.68,2503.74,2512.92,2801.79,600.05,598.07,30.51,0000 0000 0000 0000 000000
2016-09-15 06:59:50,0.12,2.60,0.00,25.31,27.67,30.58,14.48,48.13,1027.85,2035.03,2501.11,2511.11,2799.57,599.99,597.85,30.56,0000 0000 0000 0000 000000
2016-09-15 07:04:52,0.15,2.61,0.00,25.33,27.76,30.69,14.36,48.17,1027.85,2034.95,2498.59,2509.31,2797.42,599.69,597.70,30.61,0000 0000 0000 0000 000000
2016-09-15 07:09:53,0.08,2.61,0.00,25.37,27.84,30.74,14.46,48.14,1027.85,2034.23,2496.22,2507.62,2795.36,599.77,597.61,30.66,0000 0000 0000 0000 000000
2016-09-15 07:14:54,0.15,2.62,0.00,25.47,27.92,30.79,14.45,48.09,1027.85,2034.00,2493.92,2505.92,2793.30,599.81,597.45,30.71,0000 0000 0000 0000 000000
2016-09-15 07:19:55,0.14,2.63,0.00,25.58,27.99,30.86,14.37,48.12,1027.85,2033.87,2491.43,2504.23,2791.24,599.77,597.18,30.76,0000 0000 0000 0000 000000
2016-09-15 07:24:56,0.08,2.63,0.00,25.68,28.07,30.93,14.36,47.98,1027.85,2033.14,2489.01,2502.54,2789.18,599.68,596.96,30.81,0000 0000 0000 0000 000000
2016-09-15 07:29:57,0.16,2.64,0.00,25.72,28.14,31.00,14.43,48.08,1027.85,2033.00,2486.60,2500.80,2787.09,599.82,596.88,30.86,0000 0000 0000 0000 000000
2016-09-15 07:34:58,0.13,2.65,0.00,25.74,28.21,31.06,14.34,48.00,1027.86,2032.78,2484.18,2499.11,2785.07,599.72,596.85,30.91,0000 0000 0000 0000 000000
2016-09-15 07:39:59,0.08,2.65,0.00,25.68,28.27,31.15,14.43,47.93,1027.87,2032.08,2481.83,2497.52,2783.15,600.13,597.36,30.96,0000 0000 0000 0000 000000
2016-09-15 07:45:00,0.15,2.66,0.00,25.68,28.34,31.20,14.39,47.92,1027.86,2032.00,2479.49,2495.91,2781.08,599.34,596.59,31.01,0000 0000 0000 0000 000000
2016-09-15 07:50:01,0.15,2.67,0.00,25.66,28.40,31.24,14.44,47.85,1027.86,2031.98,2477.17,2494.49,2779.21,600.29,597.52,31.06,0000 0000 0000 0000 000000
2016-09-15 07:55:03,0.09,2.67,0.00,25.66,28.46,31.27,14.54,48.13,1027.93,2031.58,2474.90,2492.88,2777.32,600.29,597.59,31.11,0000 0000 0000 0000 000000
2016-09-15 08:00:04,0.10,2.68,0.00,25.73,28.52,31.32,14.43,48.13,1028.18,2031.03,2472.59,2491.32,2775.45,599.66,596.96,31.16,0000 0000 0000 0000 000000
2016-09-15 08:05:05,0.15,2.69,0.00,25.82,28.58,31.35,14.48,48.17,1028.22,2031.00,2470.38,2489.77,2773.60,599.83,596.99,31.21,0000 0000 0000 0000 000000
2016-09-15 08:10:06,0.10,2.69,0.00,25.82,28.64,31.40,14.45,48.13,1028.29,2030.78,2468.31,2488.35,2771.83,599.77,596.88,31.26,0000 0000 0000 0000 000000
2016-09-15 08:15:06,0.11,2.70,0.00,25.87,28.69,31.45,14.50,48.19,1028.33,2030.10,2465.95,2486.74,2769.91,599.91,597.09,31.31,0000 0000 0000 0000 000000
2016-09-15 08:20:07,0.17,2.70,0.00,25.88,28.74,31.48,14.45,48.21,1028.30,2030.00,2463.35,2484.94,2767.84,600.08,597.10,31.36,0000 0000 0000 0000 000000
2016-09-15 08:25:08,0.15,2.71,0.00,25.90,28.80,31.53,14.41,48.23,1028.26,2030.00,2460.92,2483.38,2765.87,600.10,597.14,31.41,0000 0000 0000 0000 000000
2016-09-15 08:30:10,0.13,2.72,0.00,25.92,28.85,31.57,14.47,48.08,1028.28,2029.75,2458.41,2481.59,2763.81,599.97,596.93,31.46,0000 0000 0000 0000 000000
2016-09-15 08:35:11,0.12,2.73,0.00,25.95,28.89,31.62,14.45,48.18,1028.32,2029.24,2455.88,2479.85,2761.69,599.97,597.00,31.51,0000 0000 0000 0000 000000
2016-09-15 08:40:12,0.15,2.73,0.00,25.96,28.93,31.66,14.47,48.27,1028.33,2029.02,2453.24,2478.10,2759.59,599.74,596.65,31.56,0000 0000 0000 0000 000000
2016-09-15 08:45:13,0.16,2.74,0.00,25.97,28.98,31.69,14.47,48.23,1028.33,2029.00,2450.69,2476.42,2757.55,600.23,597.14,31.61,0000 0000 0000 0000 000000
2016-09-15 08:50:15,0.18,2.75,0.00,26.02,29.01,31.72,14.48,48.13,1028.33,2028.98,2448.03,2474.61,2755.37,600.26,597.10,31.66,0000 0000 0000 0000 000000
2016-09-15 08:55:16,0.17,2.76,0.00,26.05,29.05,31.75,14.46,48.23,1028.32,2028.87,2445.30,2472.75,2753.19,599.80,596.64,31.71,0000 0000 0000 0000 000000
2016-09-15 09:00:17,0.13,2.77,0.00,26.05,29.08,31.81,14.42,48.18,1028.33,2028.50,2442.54,2470.93,2751.11,599.88,596.68,31.76,0000 0000 0000 0000 000000
2016-09-15 09:05:19,0.15,2.77,0.00,26.05,29.11,31.83,14.44,48.15,1028.31,2028.14,2439.71,2469.02,2748.89,600.15,596.90,31.81,0000 0000 0000 0000 000000
2016-09-15 09:10:20,0.18,2.78,0.00,26.02,29.15,31.91,14.47,48.05,1028.19,2028.01,2436.90,2467.13,2746.62,600.16,596.93,31.86,0000 0000 0000 0000 000000
2016-09-15 09:15:21,0.19,2.79,0.00,26.04,29.19,32.01,14.44,48.15,1028.30,2028.00,2434.01,2465.22,2744.34,600.06,596.87,31.91,0000 0000 0000 0000 000000
2016-09-15 09:20:23,0.21,2.80,0.00,26.06,29.23,32.09,14.55,48.23,1028.16,2027.99,2431.08,2463.15,2741.86,600.38,597.02,31.96,0000 0000 0000 0000 000000
2016-09-15 09:25:24,0.16,2.81,0.00,26.10,29.27,32.27,14.46,48.22,1028.29,2027.65,2427.93,2460.94,2739.24,600.18,596.86,32.01,0000 0000 0000 0000 000000
2016-09-15 09:30:25,0.17,2.82,0.00,26.10,29.32,32.40,14.47,48.23,1028.28,2027.05,2424.68,2458.68,2736.56,600.08,596.70,32.06,0000 0000 0000 0000 000000
2016-09-15 09:35:26,0.22,2.83,0.00,26.11,29.36,32.52,14.52,48.00,1028.32,2027.00,2421.45,2456.51,2733.95,599.91,596.65,32.11,0000 0000 0000 0000 000000
2016-09-15 09:40:27,0.20,2.84,0.00,26.14,29.41,32.60,14.48,48.19,1028.22,2026.96,2418.29,2454.35,2731.37,599.82,596.33,32.17,0000 0000 0000 0000 000000
2016-09-15 09:45:28,0.15,2.85,0.00,26.14,29.46,32.68,14.39,48.27,1028.20,2026.53,2415.17,2452.16,2728.80,599.50,596.01,32.22,0000 0000 0000 0000 000000
2016-09-15 09:50:29,0.19,2.86,0.00,26.14,29.51,32.80,14.44,48.21,1027.94,2026.05,2411.98,2450.01,2726.22,599.91,596.30,32.27,0000 0000 0000 0000 000000
2016-09-15 09:55:31,0.21,2.87,0.00,26.14,29.56,32.84,14.53,48.38,1028.10,2026.00,2408.78,2447.82,2723.55,599.76,596.15,32.32,0000 0000 0000 0000 000000
2016-09-15 10:00:32,0.22,2.88,0.00,26.14,29.61,32.87,14.39,48.10,1028.33,2025.95,2405.44,2445.53,2720.84,599.65,596.19,32.37,0000 0000 0000 0000 000000
2016-09-15 10:05:33,0.17,2.89,0.00,26.15,29.65,32.92,14.47,48.18,1028.29,2025.57,2402.16,2443.28,2718.13,600.05,596.55,32.42,0000 0000 0000 0000 000000
2016-09-15 10:10:34,0.20,2.90,0.00,26.13,29.70,32.95,14.46,48.33,1028.32,2025.06,2398.86,2441.03,2715.39,599.66,596.24,32.47,0000 0000 0000 0000 000000
2016-09-15 10:15:36,0.22,2.91,0.00,26.12,29.74,32.91,14.64,48.30,1028.29,2025.00,2395.52,2438.80,2712.72,600.56,596.98,32.52,0000 0000 0000 0000 000000
2016-09-15 10:20:37,0.22,2.92,0.00,26.10,29.78,32.94,14.49,48.29,1028.24,2025.00,2392.25,2436.60,2710.10,599.79,596.44,32.57,0000 0000 0000 0000 000000
2016-09-15 10:25:38,0.21,2.93,0.00,26.10,29.82,32.93,14.50,48.11,1028.19,2024.87,2389.01,2434.33,2707.42,600.03,596.51,32.62,0000 0000 0000 0000 000000
2016-09-15 10:30:39,0.15,2.94,0.00,26.11,29.86,32.96,14.55,48.27,1028.05,2024.30,2385.79,2432.19,2704.83,600.03,596.49,32.67,0000 0000 0000 0000 000000
2016-09-15 10:35:41,0.21,2.95,0.00,26.09,29.89,32.96,14.47,48.21,1028.16,2024.02,2382.59,2430.05,2702.18,599.81,596.41,32.72,0000 0000 0000 0000 000000
2016-09-15 10:40:43,0.22,2.96,0.00,26.09,29.93,32.92,14.57,48.28,1028.26,2024.00,2379.32,2427.93,2699.58,600.31,596.89,32.77,0000 0000 0000 0000 000000
2016-09-15 10:45:44,0.21,2.98,0.00,26.08,29.96,32.88,14.44,48.29,1028.25,2024.00,2376.19,2425.77,2697.05,599.44,596.08,32.82,0000 0000 0000 0000 000000
2016-09-15 10:50:45,0.21,2.99,0.00,26.07,29.99,32.92,14.57,48.30,1028.20,2023.99,2373.11,2423.70,2694.49,600.25,596.76,32.87,0000 0000 0000 0000 000000
2016-09-15 10:55:47,0.22,3.00,0.00,26.05,30.02,33.01,14.55,48.32,1028.19,2023.86,2369.79,2421.41,2691.82,600.11,596.71,32.92,0000 0000 0000 0000 000000
2016-09-15 11:00:48,0.21,3.01,0.00,26.02,30.04,32.93,14.46,48.33,1028.06,2023.28,2365.95,2418.81,2688.68,599.84,596.50,32.97,0000 0000 0000 0000 000000
2016-09-15 11:05:49,0.26,3.02,0.00,26.02,30.07,32.89,14.50,48.30,1028.03,2023.03,2361.91,2416.09,2685.51,600.05,596.70,33.02,0000 0000 0000 0000 000000
2016-09-15 11:10:50,0.29,3.04,0.00,25.99,30.09,32.88,14.52,48.30,1028.03,2023.00,2357.71,2413.27,2682.18,600.09,596.82,33.08,0000 0000 0000 0000 000000
2016-09-15 11:15:52,0.28,3.05,0.00,25.98,30.11,32.89,14.45,48.25,1028.03,2023.00,2353.60,2410.53,2678.98,599.72,596.40,33.13,0000 0000 0000 0000 000000
2016-09-15 11:20:53,0.28,3.06,0.00,25.95,30.12,32.88,14.48,48.45,1027.93,2022.99,2349.54,2407.84,2675.80,599.83,596.56,33.18,0000 0000 0000 0000 000000
2016-09-15 11:25:55,0.29,3.08,0.00,25.95,30.15,32.90,14.50,48.08,1027.87,2022.96,2345.41,2405.09,2672.56,600.39,597.08,33.23,0000 0000 0000 0000 000000
2016-09-15 11:30:56,0.27,3.09,0.00,25.93,30.15,32.89,14.49,48.33,1027.86,2022.96,2341.42,2402.46,2669.46,599.76,596.47,33.28,0000 0000 0000 0000 000000
2016-09-15 11:35:57,0.27,3.11,0.00,25.90,30.17,32.86,14.53,48.43,1027.85,2022.96,2337.57,2399.90,2666.39,600.16,596.94,33.33,0000 0000 0000 0000 000000
2016-09-15 11:40:58,0.20,3.12,0.00,25.89,30.18,32.91,14.49,48.36,1027.85,2022.70,2333.96,2397.43,2663.54,600.23,597.02,33.38,0000 0000 0000 0000 000000
2016-09-15 11:45:59,0.21,3.13,0.00,25.89,30.20,32.88,14.52,48.48,1027.85,2022.33,2330.68,2395.19,2660.90,599.87,596.65,33.43,0000 0000 0000 0000 000000
2016-09-15 11:51:01,0.21,3.14,0.00,25.86,30.20,32.83,14.54,48.48,1027.85,2022.11,2327.26,2392.90,2658.15,600.07,596.94,33.48,0000 0000 0000 0000 000000
2016-09-15 11:56:02,0.23,3.15,0.00,25.84,30.21,32.88,14.54,48.53,1027.80,2022.03,2323.80,2390.60,2655.41,599.98,597.00,33.53,0000 0000 0000 0000 000000
2016-09-15 12:01:03,0.23,3.16,0.00,25.82,30.22,32.84,14.54,48.52,1027.60,2022.02,2320.37,2388.41,2652.77,599.78,596.57,33.58,0000 0000 0000 0000 000000
2016-09-15 12:06:04,0.22,3.17,0.00,25.82,30.22,32.83,14.55,48.38,1027.72,2022.04,2317.26,2386.37,2650.35,599.87,596.72,33.63,0000 0000 0000 0000 000000
2016-09-15 12:11:05,0.21,3.19,0.00,25.82,30.22,32.88,14.53,48.47,1027.54,2022.02,2314.24,2384.38,2647.98,599.82,596.44,33.68,0000 0000 0000 0000 000000
2016-09-15 12:16:06,0.20,3.20,0.00,25.83,30.22,32.86,14.52,48.52,1027.39,2022.00,2311.34,2382.48,2645.68,600.36,596.94,33.73,0000 0000 0000 0000 000000
2016-09-15 12:21:08,0.19,3.21,0.00,25.81,30.23,32.83,14.54,48.42,1027.38,2022.00,2308.53,2380.60,2643.41,599.63,596.31,33.78,0000 0000 0000 0000 000000
2016-09-15 12:26:09,0.18,3.22,0.00,25.79,30.23,32.83,14.55,48.40,1027.38,2022.00,2305.99,2378.88,2641.39,600.07,596.75,33.83,0000 0000 0000 0000 000000
2016-09-15 12:31:11,0.16,3.23,0.00,25.77,30.23,32.80,14.57,48.46,1027.37,2022.00,2303.36,2377.30,2639.47,600.32,596.94,33.88,0000 0000 0000 0000 000000
2016-09-15 12:36:12,0.14,3.23,0.00,25.76,30.23,32.76,14.51,48.47,1027.36,2022.00,2301.50,2375.82,2637.80,599.57,596.34,33.93,0000 0000 0000 0000 000000
2016-09-15 12:41:14,0.13,3.24,0.00,25.73,30.22,32.76,14.45,48.58,1027.36,2022.00,2299.70,2374.54,2636.25,599.71,596.49,33.98,0000 0000 0000 0000 000000
2016-09-15 12:46:15,0.15,3.25,0.00,25.71,30.22,32.69,14.45,48.41,1027.34,2022.00,2297.55,2373.20,2634.64,599.87,596.72,34.04,0000 0000 0000 0000 000000
2016-09-15 12:51:16,0.16,3.25,0.00,25.69,30.22,32.67,14.54,48.33,1027.35,2021.97,2295.32,2371.71,2632.91,600.12,597.08,34.09,0000 0000 0000 0000 000000
2016-09-15 12:56:17,0.15,3.26,0.00,25.68,30.22,32.70,14.44,48.39,1027.29,2021.98,2292.94,2370.34,2631.19,599.51,596.32,34.14,0000 0000 0000 0000 000000